Location: Chesterfield City Police Department
(38.6620°N, 90.5643°W)
Time: 13:35:00
(UTC+00:00)

Daily predictions for brighter satellites

Satellite Brightness Start Highest point End
(mag) Time Altitude Azimuth Time Altitude Azimuth Time Altitude Azimuth
Meteor 2-3 Rocket 4.0 12:00:30 10° SSW 12:05:58 45° WNW 12:11:26 10° N
Meteor 1-26 Rocket 4.2 12:03:52 10° N 12:09:26 88° E 12:15:08 10° S
Cosmos 1814 Rocket 4.3 12:04:24 10° S 12:09:33 72° ESE 12:14:49 10° NNE
Cosmos 2219 Rocket 4.2 12:05:04 10° N 12:09:35 24° NE 12:14:03 10° ESE
NOSS 2-1 (C) 3.6 12:06:21 14° NW 12:09:38 65° WSW 12:14:53 10° SSE
Cosmos 2322 Rocket 3.2 12:06:26 10° N 12:11:55 46° ENE 12:17:20 10° SE
CBERS-1 3.9 12:08:16 10° N 12:13:23 79° WNW 12:18:27 10° SSW
COSMO-SKYMED 1 3.2 12:11:02 10° SSW 12:14:43 32° W 12:18:26 10° NNW
Cosmos 2058 Rocket 3.0 12:11:01 10° N 12:15:27 74° W 12:19:50 10° S
Cosmos-2242 2.9 12:13:06 10° N 12:17:20 77° W 12:21:30 10° S
ATLAS 2AS CENTAUR R/B 4.1 12:11:20 10° S 12:18:01 45° ESE 12:24:33 10° NE
CZ-3C R/B 4.2 12:15:09 10° SSW 12:20:47 28° SSE 12:46:37 10° ESE
COSMOS 2406 4.0 12:17:01 10° WSW 12:21:54 29° WNW 12:26:48 10° N
Thor Agena Rocket 3.5 12:18:35 10° NNE 12:23:39 88° ESE 12:28:40 10° SSW
SMAP 3.2 12:19:37 10° NNE 12:24:18 84° ESE 12:28:57 10° SSW
IRIDIUM 106 4.3 12:21:35 10° S 12:26:48 82° W 12:32:02 10° N
Landsat 7 4.0 12:25:50 10° NNE 12:30:31 77° ESE 12:35:09 10° S
COSMOS 2455 3.8 12:30:36 10° NW 12:35:42 29° WSW 12:40:46 10° SSW
Cosmos 2082 Rocket 3.8 12:33:35 10° WNW 12:35:58 13° NW 12:38:22 10° NNW
SL-16 R/B 2.3 12:32:23 10° NNW 12:37:58 60° WSW 12:43:31 10° S
NOSS 3-1 (A) 4.4 12:33:22 10° NNW 12:40:56 79° ENE 12:50:08 10° SE
CENTAUR R/B 3.9 23:08:11 10° W 23:13:00 29° NW 23:18:49 10° NNE
Cosmos 2208 Rocket 4.4 23:10:05 10° N 23:14:56 40° ENE 23:19:48 10° SE
SL-16 R/B 3.2 23:11:04 10° N 23:17:09 57° WNW 23:23:10 10° SSW
ATLAS CENTAUR R/B 2.2 23:16:11 10° N 23:18:25 17° NE 23:20:36 10° E
NOSS 2-2 (E) 3.6 23:15:09 10° SW 23:18:46 51° NW 23:21:48 10° NNE
Cosmos 1743 3.0 23:17:42 10° NNE 23:20:40 32° E 23:23:35 10° SE
BlueWalker 3 3.0 23:17:58 10° NNW 23:21:01 25° NNE 23:24:03 10° E
Cosmos 1697 Rocket 3.4 23:16:38 10° SSE 23:21:32 32° ESE 23:26:28 10° NE
Cosmos 1484 Rocket 3.7 23:18:33 10° S 23:21:57 47° W 23:25:22 10° NNW
Cosmos 1626 Rocket 3.4 23:19:38 10° N 23:23:58 75° E 23:28:14 10° SSE
SMAP 3.0 23:21:09 10° SSE 23:25:46 72° ENE 23:30:24 10° N
SOZ 4.4 23:23:23 10° WSW 23:27:00 56° NW 23:28:51 12° NE
Cosmos 1606 Rocket 4.4 23:23:44 10° SSE 23:27:30 29° E 23:31:19 10° NNE
Cosmos 1461 2.9 23:24:41 10° SSW 23:28:24 51° ESE 23:32:06 11° NE
Gbstr 26 Del rocket 3.2 23:24:25 10° SSW 23:28:30 48° SE 23:31:38 14° ENE
Cosmos 2151 3.4 23:25:11 10° N 23:29:05 38° ENE 23:32:58 10° SSE
Lacrosse 4 Rocket 4.0 23:28:51 10° WNW 23:30:23 12° NW 23:31:55 10° NNW
Landsat 7 3.7 23:27:16 10° SSE 23:31:50 63° ENE 23:36:26 10° N
IRS-1C 4.1 23:26:56 10° SSE 23:32:10 63° ENE 23:37:26 10° N
Meteor 1-20 Rocket 4.4 23:28:44 10° N 23:33:57 45° ENE 23:39:10 10° SSE
Cosmos 1544 Rocket 4.1 23:32:03 10° SSW 23:36:22 62° W 23:40:45 10° N
Thor Agena Rocket 3.9 23:33:17 10° S 23:38:29 70° WSW 23:43:41 10° NNW
Cosmos 1733 2.3 23:39:19 10° NNW 23:41:09 50° W 23:42:58 10° S
Okean 1-7 Rocket 4.0 23:37:57 10° N 23:42:05 39° ENE 23:46:10 10° SSE
SAR-Lupe-4 3.4 23:38:58 10° SSE 23:42:30 78° ENE 23:46:04 10° N
SAR-Lupe-1 4.0 23:46:27 10° SSE 23:50:01 83° ENE 23:53:38 10° N
BREEZE-M DEB (TANK) 3.0 23:50:37 10° WNW 23:51:51 17° NNW 23:52:22 16° N
Cosmos 1503 Rocket 4.0 23:47:52 10° SSW 23:53:09 88° WNW 23:58:23 10° NNE
Cosmos 1726 Rocket 4.0 23:49:30 10° SSE 23:53:53 43° E 23:58:16 10° NNE
